SL-8 DEB *, 3965

Orbit data source: Space-Track

SL-8 DEB *, 3965 is space debris in LEO originally from a launch on Mon, 15 Mar 1965 UTC launched from the Tyuratam Missile And Space Complex (TTMTR). Debris objects in space refer to the collection of defunct objects orbiting the Earth. Examples of debris include non-operational satellites, rocket bodies, and fragments generated from explosions, collisions, or faulty payload assembly.

Loading next visibility...
Identifier
3965, 1965-020EY
Orbit
LEO
Country
Flag of CISCIS
Related business
Manufacturer
Unknown
Mission
Spacecraft
Bus & Motor
Unknown
Mass
Unknown
Launch date (UTC)
1965-03-15 (61 years ago)
Launch vehicle
Unknown
Launch site
Tyuratam Missile And Space Complex (TTMTR)
Object type
Payload
Rocket body
Debris
Shape & HBR
Unknown shape, 0.1 m
Radar Cross Section
Medium (>0.1 m² and <1 m²)

Expand to show TLE details & history
Last TLE update: 17 hours ago

TLE from 17 hours ago
0 SL-8 DEB *
1 03965U 65020EY  26254.95618896  .00000209  00000-0  23205-2 0  9992
2 03965  56.2962 182.0297 0270229  38.8571  34.2049 12.27696714760020
Epoch: 2026-09-11T22:56Z
TLE epoch observation values (Epoch: 2026-09-11T22:56:54.726Z)
Latitude
53.54952°
Longitude
-89.20177°
Altitude
1,390.769 km
Speed
7.249 km/s
True Right ascension
16h 23m 59s
True Declination
53° 23' 54"
Sunlit
Object was in daylight at epoch
Visualization orbit readout
Latitude
Unknown
Longitude
Unknown
Altitude
Unknown
Speed
Unknown
Apparent Right ascension
Unknown
Apparent Declination
Unknown
Sunlit
N/A
Visualization observer readout
Local Sidereal Time
08:48:00
Azimuth
Unknown
Elevation
Unknown
Doppler factor
Unknown
Orbital elements
Apogee altitude
1,773.47 km
Perigee altitude
1,344.502 km
Semi-major axis
7,937.123 km
Eccentricity
0.02702
Inclination
56.2962°
RAAN
182.0297°
Arg. of periapsis
38.8571°
True anomaly
35.99534°
Mean anomaly
34.2049°
Eccentric anomaly
35.09507°
Mean motion
3.06936 °/min
Orbital period
117.29 mins
BSTAR
0.0023205
Loading maneuver chart data...
Computing Atmospheric mass density...

Documentation

Showing up to 5 results
|